This demonstration page uses our WeatherBlox Daily Observations layout. Learn more.

Left ArrowRight Arrow

31.31129, -92.44514

Hourly Observations for December 22, 2021

Temp ( °F °C ) Dew Point ( °F °C ) Humidity (%) Winds ( mph kmh ) Pressure ( in mb ) Visibility ( mi km ) Precip ( " mm )
12:53 am 00:53 Clear 40 4.4 37 2.8 89 89 Calm 30.09 1019 10 16 0.00 0.00
1:53 am 01:53 Clear 39 3.9 35 1.7 86 86 Calm 30.09 1019 9 14 0.00 0.00
2:53 am 02:53 Clear 38 3.3 35 1.7 89 89 Calm 30.09 1019 10 16 0.00 0.00
3:53 am 03:53 Clear 37 2.8 34 1.1 89 89 Calm 30.09 1019 10 16 0.00 0.00
4:53 am 04:53 Clear 37 2.8 34 1.1 89 89 Calm 30.08 1019 9 14 0.00 0.00
5:53 am 05:53 Clear 35 1.7 32 0 89 89 Calm 30.09 1019 9 14 0.00 0.00
7:53 am 07:53 Sunny 37 2.8 35 1.7 93 93 Calm 30.13 1020 8 13 0.00 0.00
8:53 am 08:53 Sunny 43 6.1 38 3.3 82 82 Calm 30.16 1021 10 16 0.00 0.00
9:53 am 09:53 Sunny 49 9.4 43 6.1 80 80 W 3 6 30.16 1022 10 16 0.00 0.00
10:53 am 10:53 Sunny 55 12.8 45 7.2 69 69 W 3 6 30.16 1022 10 16 0.00 0.00
11:53 am 11:53 Sunny 59 15 44 6.7 58 58 Calm 30.14 1021 10 16 0.00 0.00
12:53 pm 12:53 Sunny 62 16.7 42 5.6 48 48 Calm 30.11 1020 10 16 0.00 0.00
1:53 pm 13:53 Sunny 63 17.2 43 6.1 48 48 VRB 3 6 30.11 1020 10 16 0.00 0.00
2:53 pm 14:53 Sunny 64 17.8 42 5.6 45 45 VRB 3 6 30.10 1019 10 16 0.00 0.00
3:53 pm 15:53 Sunny 64 17.8 41 5 43 43 SW 3 6 30.11 1020 10 16 0.00 0.00
4:53 pm 16:53 Sunny 63 17.2 46 7.8 54 54 Calm 30.12 1020 10 16 0.00 0.00
5:53 pm 17:53 Clear 56 13.3 41 5 57 57 Calm 30.13 1020 10 16 0.00 0.00
6:53 pm 18:53 Clear 55 12.8 42 5.6 62 62 E 6 9 30.13 1020 10 16 0.00 0.00
7:53 pm 19:53 Clear 52 11.1 42 5.6 69 69 SE 3 6 30.14 1021 10 16 0.00 0.00
8:53 pm 20:53 Clear 50 10 41 5 71 71 ESE 3 6 30.15 1021 10 16 0.00 0.00
9:53 pm 21:53 Clear 47 8.3 40 4.4 77 77 ESE 3 6 30.15 1021 10 16 0.00 0.00
10:53 pm 22:53 Clear 45 7.2 41 5 86 86 Calm 30.16 1022 10 16 0.00 0.00
11:53 pm 23:53 Clear 44 6.7 40 4.4 85 85 Calm 30.16 1022 10 16 0.00 0.00

Powered by AerisWeather